TimeCST,TemperatureF,Dew PointF,Humidity,Sea Level PressureIn,VisibilityMPH,Wind Direction,Wind SpeedMPH,Gust SpeedMPH,PrecipitationIn,Events,Conditions,WindDirDegrees,DateUTC
12:52 AM,28.9,19.9,69,30.19,10.0,South,3.5,-,N/A,,Clear,190,2013-01-17 06:52:00
1:52 AM,27.0,19.0,72,30.22,10.0,SSW,4.6,-,N/A,,Clear,200,2013-01-17 07:52:00
2:52 AM,28.9,19.0,67,30.22,10.0,WSW,3.5,-,N/A,,Clear,240,2013-01-17 08:52:00
3:52 AM,30.9,21.0,67,30.23,-9999.0,WNW,4.6,-,N/A,,Clear,290,2013-01-17 09:52:00
4:52 AM,30.2,21.2,69,30.22,10.0,WNW,6.9,-,N/A,,Clear,300,2013-01-17 10:52:00
5:52 AM,26.1,21.9,84,30.28,10.0,NW,5.8,-,N/A,,Clear,320,2013-01-17 11:52:00
6:52 AM,28.0,25.0,88,30.31,10.0,NNW,11.5,-,N/A,,Clear,330,2013-01-17 12:52:00
7:52 AM,28.0,25.0,88,30.35,10.0,NNW,9.2,-,N/A,,Clear,330,2013-01-17 13:52:00
8:15 AM,28.9,27.0,92,30.32,7.0,NNW,10.4,-,N/A,,Scattered Clouds,330,2013-01-17 14:15:00
8:52 AM,32.0,28.9,88,30.39,7.0,NNW,13.8,-,N/A,,Scattered Clouds,340,2013-01-17 14:52:00
8:59 AM,32.0,28.9,88,30.35,6.0,North,16.1,-,N/A,,Overcast,360,2013-01-17 14:59:00
9:52 AM,33.1,30.0,89,30.42,6.0,North,10.4,-,N/A,,Overcast,360,2013-01-17 15:52:00
10:40 AM,35.1,30.0,82,30.39,6.0,NNW,12.7,-,N/A,,Haze,340,2013-01-17 16:40:00
10:52 AM,37.0,30.0,76,30.42,6.0,North,10.4,-,N/A,,Haze,360,2013-01-17 16:52:00
11:01 AM,37.0,30.0,76,30.38,10.0,NNW,10.4,-,N/A,,Scattered Clouds,340,2013-01-17 17:01:00
11:52 AM,39.0,28.9,67,30.42,10.0,North,16.1,-,N/A,,Clear,10,2013-01-17 17:52:00
12:52 PM,42.1,28.9,60,30.41,10.0,NNW,15.0,-,N/A,,Clear,340,2013-01-17 18:52:00
1:52 PM,44.1,27.0,51,30.41,10.0,NNW,13.8,-,N/A,,Clear,340,2013-01-17 19:52:00
2:52 PM,44.1,25.0,47,30.40,10.0,NNW,13.8,-,N/A,,Clear,340,2013-01-17 20:52:00
3:52 PM,44.1,24.1,45,30.42,10.0,North,12.7,-,N/A,,Clear,10,2013-01-17 21:52:00
4:52 PM,41.0,24.1,51,30.45,10.0,North,9.2,-,N/A,,Clear,360,2013-01-17 22:52:00
5:52 PM,35.1,24.1,64,30.47,10.0,NNW,5.8,-,N/A,,Clear,340,2013-01-17 23:52:00
6:52 PM,35.1,24.1,64,30.47,10.0,WNW,3.5,-,N/A,,Clear,300,2013-01-18 00:52:00
7:52 PM,30.0,21.9,72,30.49,10.0,NW,3.5,-,N/A,,Clear,310,2013-01-18 01:52:00
8:52 PM,26.1,21.0,81,30.50,10.0,Calm,Calm,-,N/A,,Clear,0,2013-01-18 02:52:00
9:52 PM,24.1,19.9,84,30.51,10.0,SE,3.5,-,N/A,,Clear,130,2013-01-18 03:52:00
10:52 PM,24.1,19.9,84,30.49,10.0,Calm,Calm,-,N/A,,Clear,0,2013-01-18 04:52:00
11:52 PM,24.1,19.9,84,30.49,-9999.0,South,3.5,-,N/A,,Clear,180,2013-01-18 05:52:00